Location: Banios
(43.0451°N, 0.2335°E)
Time: 20:58:10
(UTC+00:00)

Cosmos 1346 Rocket - Pass Details

Date: 25 January 2021
Orbit: 531 x 546 km, 81.2° (Epoch: 02 March)

Event Time Altitude Azimuth Distance (km) Brightness Sun altitude
Exits shadow 06:07:55 - 347° (NNW) 2,738 6.1 -13.4°
Rises 06:07:59 0° 347° (NNW) 2,708 6.1 -13.4°
Reaches altitude 10° 06:10:10 10° 344° (NNW) 1,814 5.2 -13.0°
Maximum altitude 06:14:08 67° 263° (W) 594 2.7 -12.3°
Drops below altitude 10° 06:18:04 10° 180° (S) 1,806 5.6 -11.6°
Sets 06:20:14 0° 178° (S) 2,696 6.6 -11.2°
